Location: Jastrz?bniki
(50.3667°N, 20.3833°E)
Time: 11:08:38
(UTC+00:00)

Cosmos 1805 Rocket - Pass Details

Date: 05 August 2024
Orbit: 602 x 626 km, 82.5° (Epoch: 09 September)

Event Time Altitude Azimuth Distance (km) Brightness Sun altitude
Exits shadow 00:04:01 47° 161° (SSE) 823 3.8 -20.5°
Maximum altitude 00:05:08 69° 97° (E) 667 3.7 -20.4°
Drops below altitude 10° 00:09:30 10° 15° (NNE) 1,985 7.3 -20.2°
Sets 00:11:44 0° 13° (NNE) 2,891 8.5 -20.1°
